TimeEDT,TemperatureF,Dew PointF,Humidity,Sea Level PressureIn,VisibilityMPH,Wind Direction,Wind SpeedMPH,Gust SpeedMPH,PrecipitationIn,Events,Conditions,WindDirDegrees,DateUTC
12:54 AM,55.9,46.0,69,30.21,10.0,Calm,Calm,-,N/A,,Clear,0,2013-05-28 04:54:00
1:54 AM,57.0,46.9,69,30.22,10.0,Calm,Calm,-,N/A,,Clear,0,2013-05-28 05:54:00
2:54 AM,55.0,48.0,77,30.20,10.0,Calm,Calm,-,N/A,,Clear,0,2013-05-28 06:54:00
3:54 AM,55.0,50.0,83,30.19,10.0,Calm,Calm,-,N/A,,Mostly Cloudy,0,2013-05-28 07:54:00
4:54 AM,55.0,48.9,80,30.19,10.0,Calm,Calm,-,0.00,,Partly Cloudy,0,2013-05-28 08:54:00
5:54 AM,55.9,48.9,77,30.20,10.0,Calm,Calm,-,N/A,,Mostly Cloudy,0,2013-05-28 09:54:00
6:54 AM,57.0,51.1,81,30.20,10.0,Calm,Calm,-,N/A,,Overcast,0,2013-05-28 10:54:00
7:54 AM,57.9,51.1,78,30.21,10.0,North,3.5,-,0.00,,Overcast,350,2013-05-28 11:54:00
8:54 AM,57.0,53.1,87,30.22,10.0,NNE,3.5,-,0.02,Rain,Light Rain,30,2013-05-28 12:54:00
9:54 AM,55.9,54.0,93,30.21,3.0,NNE,4.6,-,0.06,Rain,Rain,20,2013-05-28 13:54:00
10:54 AM,57.9,55.0,90,30.20,10.0,South,3.5,-,0.05,Rain,Light Rain,180,2013-05-28 14:54:00
11:54 AM,59.0,55.9,90,30.18,9.0,Calm,Calm,-,0.04,Rain,Rain,0,2013-05-28 15:54:00
12:29 PM,59.0,55.4,88,30.16,4.0,Calm,Calm,-,0.05,Rain,Light Rain,0,2013-05-28 16:29:00
12:54 PM,59.0,57.0,93,30.17,4.0,ESE,4.6,-,0.09,Rain,Rain,120,2013-05-28 16:54:00
1:54 PM,61.0,57.9,90,30.17,10.0,Calm,Calm,-,0.04,Rain,Light Rain,0,2013-05-28 17:54:00
2:13 PM,60.8,57.2,88,30.15,10.0,SE,3.5,-,N/A,,Overcast,130,2013-05-28 18:13:00
2:24 PM,62.6,59.0,88,30.15,10.0,Calm,Calm,-,N/A,,Overcast,0,2013-05-28 18:24:00
2:43 PM,62.6,59.0,88,30.15,10.0,Calm,Calm,-,N/A,,Overcast,0,2013-05-28 18:43:00
2:54 PM,62.1,59.0,90,30.16,10.0,Calm,Calm,-,N/A,,Overcast,0,2013-05-28 18:54:00
3:11 PM,62.6,60.8,94,30.14,9.0,Calm,Calm,-,N/A,,Overcast,0,2013-05-28 19:11:00
3:54 PM,64.0,60.1,87,30.14,10.0,SE,3.5,-,N/A,,Overcast,130,2013-05-28 19:54:00
4:01 PM,64.4,60.8,88,30.13,10.0,Calm,Calm,-,N/A,,Overcast,0,2013-05-28 20:01:00
4:54 PM,64.0,60.1,87,30.15,10.0,Calm,Calm,-,0.00,,Overcast,0,2013-05-28 20:54:00
5:54 PM,64.0,62.1,93,30.14,8.0,Calm,Calm,-,0.00,,Overcast,0,2013-05-28 21:54:00
6:39 PM,62.6,60.8,94,30.12,3.0,NNE,3.5,-,N/A,,Overcast,20,2013-05-28 22:39:00
6:54 PM,63.0,61.0,93,30.13,3.0,Calm,Calm,-,N/A,,Mostly Cloudy,0,2013-05-28 22:54:00
7:54 PM,63.0,61.0,93,30.12,3.0,Calm,Calm,-,N/A,,Mostly Cloudy,0,2013-05-28 23:54:00
8:01 PM,62.6,60.8,94,30.10,2.5,Calm,Calm,-,N/A,,Mostly Cloudy,0,2013-05-29 00:01:00
8:54 PM,62.1,60.1,93,30.11,2.5,Calm,Calm,-,N/A,,Mostly Cloudy,0,2013-05-29 00:54:00
9:01 PM,60.8,60.8,100,30.10,2.5,Calm,Calm,-,N/A,,Mostly Cloudy,0,2013-05-29 01:01:00
9:54 PM,60.1,59.0,96,30.12,2.5,NNW,3.5,-,N/A,,Mostly Cloudy,330,2013-05-29 01:54:00
10:54 PM,61.0,59.0,93,30.13,2.5,NNW,4.6,-,N/A,,Overcast,340,2013-05-29 02:54:00
11:02 PM,60.8,59.0,94,30.11,1.5,North,3.5,-,N/A,,Overcast,360,2013-05-29 03:02:00
11:54 PM,61.0,59.0,93,30.13,1.5,North,3.5,-,N/A,,Overcast,350,2013-05-29 03:54:00